Location: Ajisawe
(8.4333°N, 4.3833°E)
Time: 21:47:24
(UTC+00:00)

Vanguard 2 Rocket - Pass Details

Date: 22 April 2021
Orbit: 554 x 3326 km, 32.9° (Epoch: 16 May)

Event Time Altitude Azimuth Distance (km) Brightness Sun altitude
Rises 21:51:22 0° 286° (WNW) 5,924 11.5 -55.7°
Reaches altitude 10° 21:56:51 10° 274° (W) 4,373 10.6 -56.7°
Enters shadow 22:00:09 17° 262° (W) 3,494 10.0 -57.4°
Maximum altitude 22:05:00 24° 227° (SW) 2,568 - -58.3°
Drops below altitude 10° 22:10:31 10° 175° (S) 2,835 - -59.3°
Sets 22:13:14 0° 159° (SSE) 3,482 - -59.8°
